当前在线人数15813
首页 - 分类广告
发布广告出售 求购 代购 交换 出租 求租 招聘 求职 coupon 
相关版面二手市场  海外代购  房屋出租/求租  招聘/求职  电子商务  吉福卡  省钱一族 
分类显示全部 出售 求购 代购 交换 出租 求租 招聘 求职 coupon  [ 首页 ] [ 上页 ][下页][末页][ 分页:1 2 3 4 5 6 7 8 9 ...1111 ] 
日期: 2017年05月24日 星期三  
1 [出售] Samsung Galaxy s7 edge, s6, s6 edge...  (2017-05-24 17:52:15)
2 [出售]1x Dyson DC33 Multi-floor @$300  (2017-05-24 16:33:39)
3 [出售]出售IHG 房卷一张,$135  (2017-05-24 16:33:13)
4 [出售] 1x Xbox one 500GB- Gears of War Bundle @$278  (2017-05-24 16:32:55)
5 [出售]【FBA出售】30x Fitbit Charge HR Black Small@$80 each  (2017-05-24 16:19:31)
6 [出售]【label ready出售】 1x HP mobile OJ150 @ $290  (2017-05-24 16:18:25)
7 [出售]2x Dell E514DW Laser Multifunction Printer@65  (2017-05-24 16:17:29)
8 [出售]Hotels.com giftcard 400 刀@ 0.88  (2017-05-24 13:49:51)
9 [出售]出售2 个 AA 35K @ 350 each  (2017-05-24 12:40:38)
10 [出售]出售2 个 AA 32.5K @ 320 each  (2017-05-24 12:39:29)
11 [出售] Safeway 油点 2k @ $5each  (2017-05-24 12:28:50)
12 [出售][出售 ]kohl cash 60*5+70*3+80*2 @0.7  (2017-05-24 12:05:31)
13 [出售][高信誉出售] 大面额 SAKS giftcard gc 0.92  (2017-05-24 11:23:57)
14 [出售]Nintendo Switch 两灰一彩 360/370  (2017-05-24 11:05:58)
15 [出售]68x Samsung Express 3 @ $51 each  (2017-05-24 11:03:57)
16 [出售]saks 实体gift card $3000 @0.88  (2017-05-24 11:00:55)
17 [出售] 30+ AT&TGoPhone Alcatel Ideal @$26.5 each  (2017-05-24 10:59:17)
18 [出售]13x HP 15-BA009DX @$220 each  (2017-05-24 10:56:50)
19 [出售][老id出售]UA United Airline Miles Mileage 美联航 1.6  (2017-05-24 10:56:47)
20 [出售]$200 Southwest Airlines eGC @0.9  (2017-05-24 00:43:00)
21 [出售]Canon Pro 100 + +LU101 $190 (可囤)  (2017-05-24 00:19:27)
22 [出售]Marriott 万豪 CAT5 Free Night Certificate 房券 $100  (2017-05-24 00:17:44)
日期: 2017年05月23日 星期二  
1 [出售]Gogo Inflight wifi pass US/Canada 12张  (2017-05-23 20:33:37)
2 [出售]Kohl's cash $10, 卖5刀  (2017-05-23 18:27:19)
3 [出售]ua12万@1.57  (2017-05-23 18:11:38)
4 [出售] JetBlue 300k Points/Miles 代订里程票 @ 1.3  (2017-05-23 17:26:46)
5 [出售]18X airpods from DE @182  (2017-05-23 16:58:36)
6 [出售][6666老ID] NM neiman marcus gift card @0.9  (2017-05-23 16:15:48)
7 [出售]出售 lowes gc 3x$100 at 0.9  (2017-05-23 15:32:40)
8 [出售]11个airpod @180  (2017-05-23 15:32:24)
9 [出售]出售红蓝Switch @355  (2017-05-23 14:35:45)
10 [出售] saks egc@0.9  (2017-05-23 14:09:34)
11 [出售]出红蓝Switch 360$  (2017-05-23 14:06:03)
12 [出售]9* ipad pro 32gb @ $465 each  (2017-05-23 13:51:30)
13 [出售]15 * ipad mini 2 32gb @ $260 each  (2017-05-23 13:41:06)
14 [出售]Nike GC $150 @0.88  (2017-05-23 13:29:22)
15 [出售][出售]AA UA Millage  (2017-05-23 13:27:05)
16 [出售] lowes gc@0.89  (2017-05-23 13:22:08)
17 [出售] kohls gc@0.91  (2017-05-23 13:07:48)
18 [出售] saks gc@0.88  (2017-05-23 13:25:51)
19 [出售]saks 300 off 1000 coupon@ 50  (2017-05-23 12:03:01)
20 [出售]大量Apple Watch Series 1 38mm  (2017-05-23 11:53:01)
21 [出售]【老ID出售】 Bloomingdales $500 GC @0.89  (2017-05-23 11:51:14)
22 [出售]LG G6 Tmobile @360 each  (2017-05-23 11:45:05)
23 [出售]【老ID出售】Safeway GC $650 0.92  (2017-05-23 11:42:29)
24 [出售]【老ID出售】Bloomingdales GC $1300 @ 0.90  (2017-05-23 11:41:24)
25 [出售]6x Apple Watch series 1 rose golden@220  (2017-05-23 11:26:39)
26 [出售]kohls cash $10 at 0.6  (2017-05-23 09:44:51)
27 [出售]amex gold MR 54,483 @1.5  (2017-05-23 09:40:30)
28 [出售]kohls cash $430@0.7  (2017-05-23 09:21:09)
29 [出售]$220 Kohl's Cash@0.7  (2017-05-23 08:24:25)
30 [出售][出售]19个 Office 365 Personal 1 Year@30each  (2017-05-23 05:16:44)
31 [出售] Marriott points 17,441 @0.8  (2017-05-23 00:52:03)
32 [出售]khols cash $540 @0.7  (2017-05-23 00:43:14)
33 [出售]UA travel cretificate $100 五折,5/31到期  (2017-05-22 23:51:05)
日期: 2017年05月22日 星期一  
1 [出售] GameStop egc 500 @ 0.89  (2017-05-22 23:22:32)
2 [出售] 6*airpods @185  (2017-05-22 23:20:32)
3 [出售]brother 2320d $58 from CA  (2017-05-22 23:16:40)
4 [出售]现货Nintendo switch 红蓝 @360 2台 from DE  (2017-05-22 23:44:38)
5 [出售]出售 UA Pass 2张, 10/31过期,$20each  (2017-05-22 22:18:32)
6 [出售]Staples $20off$60 reg-price instore/online@7  (2017-05-22 20:35:33)
7 [出售] 2x Brother HL-L2380DW NJ @ $100  (2017-05-22 19:56:27)
8 [出售]Canon pro100+ paper CA/TX @$195  (2017-05-22 19:50:40)
9 [出售]IHG free night x 1 @145  (2017-05-22 19:47:30)
10 [出售] Macy GC $1000 (2 x $500) @0.93  (2017-05-22 19:20:35)
11 [出售] staples gc $500 (5 x $100) @ 0.93  (2017-05-22 19:17:59)
12 [出售]staples in store ink receipt $30+  (2017-05-22 17:52:11)
13 [出售]canon pro100 + 纸@195  (2017-05-22 17:36:24)
14 [出售]出售marriot 1-5和ihg房券  (2017-05-22 17:21:53)
15 [出售]22 AirPods $185 each  (2017-05-22 16:28:21)
16 [出售]air france法航里程23k or more @ 1.50 or less  (2017-05-22 16:23:45)
17 [出售] $400 Kohl's Cash @ 0.7  (2017-05-22 15:55:52)
18 [出售]Staples $30 off 60 coupon  (2017-05-22 15:42:06)
19 [出售]Kohls cash 350(120+230) @ 0.7rate  (2017-05-22 15:37:14)
20 [出售][元老ID出售】saks 实体卡 $1400@.88  (2017-05-22 14:11:08)
21 [出售]NIKE $20 Off Any Order of $100 Gift card code  (2017-05-22 13:46:11)
22 [出售]GameStop eGC $100*5 @0.88  (2017-05-22 13:00:52)
23 [出售]出售 AA里程59k @ 1.38  (2017-05-22 12:54:38)
24 [出售][coupon] 出售 staples coupon  (2017-05-22 12:40:58)
25 [出售]【原始ID出售】AMEX 81k @1.45 OBO  (2017-05-22 11:01:17)
26 [出售]现货Nintendo switch 灰/红蓝 @355/365 各2台 from DE  (2017-05-22 10:31:19)
27 [出售]kohls gift card GC @0.9  (2017-05-22 09:36:35)
28 [出售] Nintendo Switch  (2017-05-22 06:40:12)
29 [出售]全新未拆 macbook pro 13.3 带bar 512gb ssd silver  (2017-05-22 03:12:39)
30 [出售]15*MacBook MMGG2 $925  (2017-05-22 03:20:34)
31 [出售]kohls cash $320 @0.7  (2017-05-22 00:18:45)
日期: 2017年05月21日 星期日  
1 [出售] Bestbuy gc 100 @0.95  (2017-05-21 22:26:17)
2 [出售] Nintendo Switch 红蓝x1 380 灰x2 370 现货 @ CA  (2017-05-21 22:15:02)
3 [出售] kohls 40% off coupon @$2  (2017-05-21 21:52:52)
4 [出售] $30 Kohls Cash @ $20  (2017-05-21 23:23:35)
5 [出售]KOHL'S 40% off $2  (2017-05-21 21:03:17)
6 [出售][出售]Staples 墨盒代投  (2017-05-21 19:46:12)
7 [出售]纽约地铁月票两张,原价121刀,现价105刀/张  (2017-05-21 19:26:24)
8 [出售]Kohls gc - 0.9  (2017-05-21 17:34:33)
9 [出售]【6666 老ID 出售】2x $200 United UA Certificate @ 75%  (2017-05-21 17:15:40)
10 [出售]在线出【出售】 kohls 40% off coupon @ 2刀  (2017-05-21 23:21:56)
11 [出售]Skype Voucher $27.59 (1000 Skype Minutes) for $15  (2017-05-21 16:23:45)
12 [出售]Re: [navid出售] Ipad mini 4 32gb space grey @350 each, up u  (2017-05-21 23:20:10)
13 [出售]出售kohls 40% @$3就一个  (2017-05-21 15:27:06)
14 [出售]American airlines AA 260k@1.48  (2017-05-21 15:11:49)
分类显示全部 出售 求购 代购 交换 出租 求租 招聘 求职 coupon  [ 首页 ] [ 上页 ][下页][末页][ 分页:1 2 3 4 5 6 7 8 9 ...1111 ] 
发布广告出售 求购 代购 交换 出租 求租 招聘 求职 coupon 
相关版面二手市场  海外代购  房屋出租/求租  招聘/求职  电子商务  吉福卡  省钱一族 
未名交友
将您的链接放在这儿
 
 

Site Map - Contact Us - Terms and Conditions - Privacy Policy

版权所有,未名空间(mitbbs.com),since 1996